Simultaneous Nadir Overpasses (SNOs) Predictions

Prediction of SNOs between AQUA and GOES-15 Satellite Orbit:

Table of predicted SNOs for the next 14.0 days since TLE Epoch: 1/7/2023
Index Date Time (AQUA) AQUA Lat,Lon GOES-15 Lat,Lon Distance(km) Time Diff (sec)
1 01/07/2023 10:07:46 -0.37,-126.10 0.01,-127.95 209.93 80
2 01/07/2023 22:28:56 -0.70,-131.23 -0.00,-127.89 379.50 80
3 01/09/2023 22:15:53 -0.02,-128.05 -0.01,-127.94 12.57 80
4 01/11/2023 22:02:49 0.68,-124.87 -0.01,-127.98 354.34 80
5 01/12/2023 10:23:50 0.41,-129.96 0.00,-128.05 217.12 80
6 01/14/2023 10:10:45 -0.27,-126.78 0.00,-128.09 149.64 80
7 01/14/2023 22:31:55 -0.82,-131.91 -0.00,-128.04 439.32 80
8 01/16/2023 22:18:49 -0.16,-128.71 -0.00,-128.07 73.22 80
9 01/18/2023 22:05:43 0.53,-125.52 -0.01,-128.09 292.20 80
10 01/19/2023 10:26:45 0.53,-130.62 0.01,-128.15 280.28 80
